Home > Time Zones > World Clock > Weather > India > Thane > Past weeks

Flag for India Weather past 2 weeks in Thane, Maharashtra, India

Now
84 °F

Passing clouds.


Feels Like: 94 °F
Forecast: 78 / 85 °F
Wind: 5 mph from Southwest

Location: Bombay / Santacruz

Current Time: Jul 2, 2015 at 6:54:46 AM

Latest Report: Jul 2, 2015 at 6:10 AM


Visibility: 2 mi

Pressure: 29.80 "Hg

Humidity: 79%

Dew point: 77 °F

Location of ThaneLocation

Historic Weather in Thane — Graph

°F

Thane temperature yesterday

Maximum temperature yesterday: 90 °F (at 3:10 PM)
Minimum temperature yesterday: 82 °F (at 4:10 AM)
Average temperature yesterday: 85 °F

Past Weeks' High & Low Weather Summary

 TemperatureHumidityPressure
High90 °F (Jun 28, 2:40 PM)100% (Jun 17, 5:40 AM)29.83 "Hg (Jun 17, 5:40 AM)
Low77 °F (Jun 17, 7:40 AM)66% (Jun 30, 3:10 PM)29.42 "Hg (Jun 21, 5:10 PM)
Average83 °F85%29.62 "Hg
* Reported Jun 17 5:40 AM — Jul 2 5:40 AM, Thane, Weather by CustomWeather, © 2015

Note: Actual official high and low records may vary slightly from our data, if they occured in-between our weather recording intervals... More about our weather records

Advertising

Thane weather history for previous 24 hours

 ConditionsComfort  
Time TempWeatherWind HumidityBarometerVisibility
5:40 AM
Thu, Jul 2
84 °FPassing clouds.8 mph74%29.80 "Hg2 mi
5:10 AM84 °FPassing clouds.6 mph79%29.80 "Hg2 mi
4:40 AM84 °FPassing clouds.7 mph79%29.80 "Hg2 mi
4:10 AM84 °FPassing clouds.7 mph79%29.80 "Hg2 mi
3:10 AM84 °FPartly cloudy.8 mph79%29.77 "Hg2 mi
2:40 AM84 °FPartly cloudy.7 mph79%29.77 "Hg2 mi
2:10 AM84 °FPartly cloudy.8 mph79%29.80 "Hg2 mi
1:40 AM84 °FPartly cloudy.9 mph79%29.80 "Hg2 mi
1:10 AM84 °FPartly cloudy.8 mph79%29.80 "Hg2 mi
12:40 AM84 °FPartly cloudy.8 mph79%29.80 "Hg2 mi
12:10 AM84 °FPartly cloudy.8 mph79%29.83 "Hg2 mi
11:40 PM
Wed, Jul 1
84 °FPartly cloudy.8 mph79%29.83 "Hg2 mi
11:10 PM84 °FPassing clouds.6 mph79%29.83 "Hg2 mi
10:40 PM84 °FPassing clouds.8 mph79%29.83 "Hg2 mi
10:10 PM84 °FPassing clouds.9 mph79%29.83 "Hg2 mi
9:40 PM84 °FPassing clouds.12 mph79%29.80 "Hg2 mi
8:40 PM86 °FPassing clouds.10 mph75%29.80 "Hg3 mi
8:10 PM86 °FPassing clouds.12 mph75%29.80 "Hg3 mi
7:10 PM86 °FScattered clouds.9 mph75%29.77 "Hg4 mi
6:40 PM86 °FScattered clouds.13 mph75%29.77 "Hg4 mi
6:10 PM86 °FScattered clouds.13 mph75%29.77 "Hg4 mi
5:40 PM86 °FScattered clouds.12 mph75%29.77 "Hg4 mi
5:10 PM88 °FScattered clouds.N/A70%29.77 "Hg5 mi
4:40 PM88 °FScattered clouds.13 mph70%29.77 "Hg6 mi
4:10 PM88 °FScattered clouds.15 mph70%29.77 "Hg6 mi
3:40 PM90 °FScattered clouds.13 mph67%29.77 "Hg5 mi
3:10 PM90 °FScattered clouds.15 mph67%29.80 "Hg4 mi
2:40 PM88 °FScattered clouds.10 mph70%29.80 "Hg4 mi
1:40 PM88 °FScattered clouds.13 mph70%29.80 "Hg2 mi
1:10 PM88 °FScattered clouds.10 mph75%29.80 "Hg2 mi
12:40 PM88 °FScattered clouds.7 mph75%29.83 "Hg2 mi
12:10 PM88 °FScattered clouds.8 mph75%29.83 "Hg2 mi
11:40 AM88 °FScattered clouds.10 mph70%29.83 "Hg2 mi
11:10 AM88 °FScattered clouds.16 mph75%29.80 "Hg2 mi
10:40 AM86 °FScattered clouds.14 mph75%29.83 "Hg2 mi
10:10 AM86 °FScattered clouds.16 mph75%29.83 "Hg2 mi
9:40 AM86 °FScattered clouds.14 mph75%29.80 "Hg2 mi
9:10 AM86 °FScattered clouds.12 mph75%29.80 "Hg2 mi
8:40 AM86 °FScattered clouds.12 mph75%29.80 "Hg2 mi
8:10 AM84 °FScattered clouds.9 mph84%29.80 "Hg2 mi
7:40 AM82 °FScattered clouds.5 mph89%29.80 "Hg2 mi
7:10 AM82 °FScattered clouds.6 mph89%29.77 "Hg2 mi
6:40 AM82 °FScattered clouds.8 mph89%29.77 "Hg2 mi
6:10 AM82 °FPassing clouds.7 mph89%29.77 "Hg2 mi
Weather by CustomWeather, © 2015

See weather overviewHow to use our weather pages